GW3496 Weather Reports


time (UTC)temp
C
wind
direction
speed
KPH
gust
KPH
rain 1hr
cm
rain 24hr
cm
rain mn
cm
humidity
%
barometer
mb
20240614113022 22 183 9.7 14.5 0.00 0.00 0.00 80 1011.0
20240614111550 21 206 4.8 12.9 0.00 0.00 0.00 81 1011.0
20240614110024 21 226 6.4 16.1 0.00 0.00 0.00 82 1010.8
20240614104528 21 215 6.4 16.1 0.00 0.00 0.00 82 1010.6
20240614103034 21 207 9.7 17.7 0.00 0.00 0.00 82 1010.9
20240614101534 21 192 9.7 16.1 0.00 0.00 0.00 82 1010.7
20240614100039 21 184 8.0 16.1 0.00 0.00 0.00 81 1010.6
20240614094537 21 188 6.4 12.9 0.00 0.00 0.00 81 1010.8
20240614093041 21 198 4.8 8.0 0.00 0.00 0.00 81 1010.8
20240614091528 21 126 1.6 6.4 0.00 0.00 0.00 80 1010.8
20240614090032 21 187 3.2 6.4 0.00 0.00 0.00 80 1010.8
20240614084530 21 149 3.2 9.7 0.00 0.00 0.00 80 1010.9
20240614083030 22 160 4.8 9.7 0.00 0.00 0.00 78 1010.7
20240614081528 22 221 6.4 12.9 0.00 0.00 0.00 77 1010.7
20240614080030 22 169 3.2 12.9 0.00 0.00 0.00 77 1011.0
20240614074526 22 192 6.4 9.7 0.00 0.00 0.00 76 1011.0
20240614073020 22 161 0.0 6.4 0.00 0.00 0.00 76 1011.2
20240614071530 23 169 3.2 6.4 0.00 0.00 0.00 75 1011.2
20240614070051 23 211 0.0 9.7 0.00 0.00 0.00 74 1011.2
20240614064538 23 208 6.4 11.3 0.00 0.00 0.00 75 1011.3
20240614063030 23 165 6.4 11.3 0.00 0.00 0.00 74 1011.3
20240614061526 23 217 6.4 16.1 0.00 0.00 0.00 73 1011.3
20240614060034 23 188 6.4 14.5 0.00 0.00 0.00 72 1011.3
20240614054529 24 204 4.8 14.5 0.00 0.00 0.00 71 1011.4
20240614053037 24 230 9.7 14.5 0.00 0.00 0.00 70 1011.6
20240614051535 24 195 6.4 16.1 0.00 0.00 0.00 69 1011.7
20240614050052 25 221 8.0 19.3 0.00 0.00 0.00 68 1011.8
20240614044550 25 218 8.0 17.7 0.00 0.00 0.00 67 1012.0
20240614043043 25 214 11.3 17.7 0.00 0.00 0.00 66 1011.9
20240614041546 25 167 12.9 20.9 0.00 0.00 0.00 66 1012.0
20240614040049 26 176 9.7 19.3 0.00 0.00 0.00 66 1012.0
20240614034542 26 152 6.4 17.7 0.00 0.00 0.00 65 1012.1
20240614033047 26 148 6.4 16.1 0.00 0.00 0.00 65 1012.2
20240614031545 26 139 8.0 20.9 0.00 0.00 0.00 65 1012.0
20240614030044 26 166 9.7 19.3 0.00 0.00 0.00 65 1012.2
20240614024548 27 197 6.4 19.3 0.00 0.00 0.00 65 1012.1
20240614023056 27 153 11.3 20.9 0.00 0.00 0.00 65 1012.0
20240614021543 27 130 9.7 16.1 0.00 0.00 0.00 65 1012.3
20240614020051 27 181 8.0 12.9 0.00 0.00 0.00 65 1012.1
20240614014546 27 172 8.0 14.5 0.00 0.00 0.00 65 1012.0
20240614013055 27 108 3.2 9.7 0.00 0.00 0.00 64 1011.8
20240614011600 28 185 8.0 12.9 0.00 0.00 0.00 64 1011.8
20240614010059 28 157 8.0 16.1 0.00 0.00 0.00 63 1011.8
20240614004553 28 164 9.7 14.5 0.00 0.00 0.00 61 1011.6
20240614003107 29 161 6.4 11.3 0.00 0.00 0.00 58 1011.8
20240614001547 30 200 11.3 19.3 0.00 0.00 0.00 54 1011.8
20240614000053 30 144 6.4 17.7 0.00 0.00 0.00 54 1011.8
20240613234558 30 171 11.3 22.5 0.00 0.00 0.00 52 1012.0
20240613233052 30 155 11.3 25.7 0.00 0.00 0.00 52 1012.1
20240613231556 31 198 9.7 22.5 0.00 0.00 0.00 52 1011.9
20240613230052 31 216 11.3 24.1 0.00 0.00 0.00 52 1011.8
20240613224601 31 163 6.4 20.9 0.00 0.00 0.00 52 1011.9
20240613223100 31 217 11.3 24.1 0.00 0.00 0.00 52 1011.8
20240613221557 31 239 14.5 30.6 0.00 0.00 0.00 51 1011.6
20240613220104 31 163 16.1 25.7 0.00 0.00 0.00 50 1011.6
20240613214553 31 188 11.3 24.1 0.00 0.00 0.00 51 1011.9
20240613213100 31 192 19.3 29.0 0.00 0.00 0.00 50 1011.7
20240613211603 31 195 19.3 29.0 0.00 0.00 0.00 49 1012.0
20240613210109 31 153 16.1 25.7 0.00 0.00 0.00 50 1011.8
20240613204553 31 192 16.1 29.0 0.00 0.00 0.00 49 1012.2
20240613203059 31 182 11.3 22.5 0.00 0.00 0.00 48 1012.2
20240613201557 32 96 16.1 29.0 0.00 0.00 0.00 48 1012.2
20240613200106 32 166 14.5 22.5 0.00 0.00 0.00 47 1012.5
20240613194558 31 163 9.7 29.0 0.00 0.00 0.00 49 1012.7
20240613193059 31 201 16.1 25.7 0.00 0.00 0.00 50 1012.5
20240613191601 32 160 8.0 27.4 0.00 0.00 0.00 49 1012.8
20240613190107 31 192 16.1 29.0 0.00 0.00 0.00 49 1012.8
20240613184611 31 131 9.7 24.1 0.00 0.00 0.00 51 1013.1
20240613183108 31 180 17.7 27.4 0.00 0.00 0.00 50 1013.2
20240613181609 30 232 11.3 20.9 0.00 0.00 0.00 52 1013.4
20240613180101 30 194 14.5 27.4 0.00 0.00 0.00 52 1013.5
20240613174641 30 171 8.0 22.5 0.00 0.00 0.00 54 1013.7
20240613173101 30 261 19.3 29.0 0.00 0.00 0.00 54 1013.8
20240613171601 29 202 14.5 29.0 0.00 0.00 0.00 55 1014.1
20240613170023 30 155 11.3 20.9 0.00 0.00 0.00 56 1014.1
20240613164518 28 54 8.0 27.4 0.00 0.00 0.00 59 1014.0
20240613163019 28 200 9.7 20.9 0.00 0.00 0.00 60 1014.4
20240613161515 28 173 9.7 17.7 0.00 0.00 0.00 60 1014.4
20240613160016 28 166 9.7 20.9 0.00 0.00 0.00 60 1014.5
20240613154520 28 206 6.4 22.5 0.00 0.00 0.00 61 1014.5
20240613153021 28 196 14.5 24.1 0.00 0.00 0.00 60 1014.6
20240613151514 28 216 11.3 25.7 0.00 0.00 0.00 62 1014.5
20240613150015 27 148 12.9 24.1 0.00 0.00 0.00 62 1014.5
20240613144527 27 161 9.7 19.3 0.00 0.00 0.00 65 1014.5
20240613143016 26 148 1.6 14.5 0.00 0.00 0.00 67 1014.9
20240613141519 26 184 9.7 14.5 0.00 0.00 0.00 70 1015.1
20240613140019 25 175 3.2 19.3 0.00 0.00 0.00 71 1014.8
20240613134520 25 153 8.0 14.5 0.00 0.00 0.00 73 1015.2
20240613133024 23 155 6.4 12.9 0.00 0.00 0.00 74 1015.2
20240613131516 23 42 1.6 14.5 0.00 0.00 0.00 77 1015.3
20240613130027 23 129 6.4 12.9 0.00 0.00 0.00 76 1015.2
20240613124517 22 168 4.8 12.9 0.00 0.00 0.00 78 1015.1
20240613123021 22 96 4.8 14.5 0.00 0.00 0.00 79 1015.1
20240613121535 21 187 6.4 12.9 0.00 0.00 0.00 81 1014.9
20240613120021 21 157 6.4 11.3 0.00 0.00 0.00 83 1014.9
20240613114521 20 160 3.2 9.7 0.00 0.00 0.00 85 1014.6